CW5629 Weather Reports


Display with metric or nautical units.
time (UTC)temp
F
wind
direction
speed
MPH
gust
MPH
rain 1hr
in
rain 24hr
in
rain mn
in
humidity
%
barometer
mb
20260503192123 54 113 0.0 0.0 0.00 0.04 0.01 91 1009.2
20260503191114 55 113 0.0 0.0 0.00 0.04 0.01 90 1009.1
20260503190127 55 113 0.0 1.0 0.00 0.04 0.01 89 1009.0
20260503185138 56 116 0.0 1.0 0.00 0.04 0.01 89 1008.9
20260503184124 56 116 0.0 1.0 0.00 0.04 0.01 88 1008.9
20260503183117 56 117 0.0 1.0 0.00 0.04 0.01 88 1008.8
20260503182124 57 116 0.0 0.0 0.00 0.04 0.01 87 1008.8
20260503181121 58 117 0.0 1.0 0.00 0.04 0.01 86 1008.7
20260503180134 58 108 0.0 1.0 0.00 0.04 0.01 87 1008.7
20260503175140 58 110 0.0 1.0 0.00 0.04 0.01 84 1008.8
20260503174113 60 107 0.0 1.0 0.00 0.04 0.01 84 1008.7
20260503173119 60 117 0.0 4.0 0.04 0.04 0.01 83 1008.7
20260503172112 60 122 0.0 2.0 0.04 0.04 0.01 81 1008.6
20260503171125 61 116 0.0 2.0 0.04 0.16 0.01 81 1008.6
20260503170159 60 103 0.0 1.0 0.04 0.16 0.01 83 1008.6
20260503160136 61 120 0.0 1.0 0.00 0.47 0.00 85 1008.7
20260503150116 57 115 0.0 1.0 0.00 1.10 0.00 90 1008.9
20260503140113 57 127 0.0 1.0 0.00 1.85 0.00 91 1009.2
20260503131123 56 125 0.0 1.0 0.00 1.93 0.00 91 1009.4
20260503130115 56 120 0.0 1.0 0.00 1.93 0.00 90 1009.4
20260503120114 57 110 0.0 1.0 0.00 1.97 0.00 91 1009.3
20260503110130 56 116 0.0 2.0 0.00 1.97 0.00 90 1009.5
20260503100115 56 115 0.0 0.0 0.00 1.97 0.00 92 1009.6
20260503090134 54 110 0.0 1.0 0.00 1.97 0.00 95 1009.5
20260503081114 54 108 0.0 0.0 0.00 1.97 0.00 95 1009.6
20260503080118 54 108 0.0 0.0 0.00 1.97 0.00 95 1009.5
20260503072116 53 106 0.0 0.0 0.00 1.97 0.00 96 1009.5
20260503071129 53 106 0.0 0.0 0.00 1.97 0.00 96 1009.5
20260503070115 53 106 0.0 0.0 0.00 1.97 0.00 96 1009.3
20260503060114 50 106 0.0 0.0 0.00 1.97 0.00 96 1009.1
20260503054112 50 106 0.0 0.0 0.00 1.97 0.00 96 1009.0
20260503053125 50 106 0.0 0.0 0.00 1.97 0.00 96 1008.9
20260503052136 50 106 0.0 0.0 0.00 1.97 0.00 96 1008.8
20260503051123 50 106 0.0 0.0 0.00 1.97 0.00 96 1009.0
20260503050136 50 106 0.0 0.0 0.00 1.97 0.00 96 1008.9
20260503045122 50 106 0.0 0.0 0.00 1.97 0.00 96 1008.9
20260503044128 50 106 0.0 0.0 0.00 1.97 0.00 96 1008.8
20260503043121 50 106 0.0 0.0 0.00 1.97 0.00 96 1008.7
20260503042136 50 106 0.0 0.0 0.00 1.97 0.00 96 1008.8
20260503041120 51 106 0.0 0.0 0.00 1.97 0.00 96 1008.9
20260503040132 51 106 0.0 1.0 0.00 1.97 0.00 96 1008.9
20260503035117 51 117 0.0 0.0 0.00 1.97 0.00 96 1009.0
20260503034157 51 117 0.0 0.0 0.00 1.97 0.00 96 1009.0
20260503033120 51 116 0.0 0.0 0.00 1.97 0.00 96 1009.1
20260503032135 51 117 0.0 0.0 0.00 1.97 0.00 96 1009.1
20260503031118 51 117 0.0 0.0 0.00 1.97 0.00 96 1009.2
20260503030131 51 117 0.0 0.0 0.00 1.97 0.00 96 1009.3
20260503025122 51 117 0.0 0.0 0.00 1.97 0.00 96 1009.2
20260503024134 51 117 0.0 0.0 0.00 1.97 0.00 96 1009.3
20260503023127 51 117 0.0 0.0 0.00 1.97 0.00 96 1009.4
20260503022113 51 117 0.0 0.0 0.00 1.97 0.00 96 1009.4
20260503021146 51 117 0.0 0.0 0.00 1.97 0.00 96 1009.5
20260503020118 51 117 0.0 0.0 0.00 1.97 0.00 96 1009.5
20260503015123 51 117 0.0 0.0 0.00 1.97 0.00 96 1009.5
20260503014117 51 117 0.0 0.0 0.00 1.97 0.00 96 1009.6
20260503013129 51 117 0.0 0.0 0.00 1.97 0.00 96 1009.6
20260503012119 51 117 0.0 0.0 0.00 1.97 0.00 96 1009.7
20260503011125 51 116 0.0 0.0 0.00 1.97 0.00 96 1009.8
20260503010118 51 117 0.0 0.0 0.00 1.97 0.00 96 1009.8
20260503005131 51 116 0.0 0.0 0.00 1.97 0.00 96 1010.0
20260503004117 51 117 0.0 0.0 0.00 1.97 0.00 96 1010.1
20260503003130 51 117 0.0 0.0 0.00 1.97 0.00 96 1010.2
20260503002116 51 117 0.0 0.0 0.00 1.97 0.00 96 1010.2
20260503001130 51 117 0.0 0.0 0.00 1.97 0.00 96 1010.2
20260503000143 51 117 0.0 0.0 0.00 1.97 0.00 96 1010.3
20260502235134 50 117 0.0 0.0 0.00 1.97 0.00 96 1010.3
20260502234117 50 117 0.0 0.0 0.00 1.97 0.00 95 1010.3
20260502233130 50 117 0.0 0.0 0.00 1.97 0.00 95 1010.3
20260502232115 51 117 0.0 0.0 0.00 1.97 0.00 95 1010.2
20260502231128 51 117 0.0 0.0 0.00 1.97 0.39 95 1010.2
20260502230114 51 117 0.0 0.0 0.00 1.97 0.39 95 1010.2
20260502225128 52 117 0.0 1.0 0.00 1.97 0.39 95 1010.3
20260502224114 52 117 0.0 0.0 0.00 1.97 0.39 95 1010.6
20260502223126 52 116 0.0 0.0 0.00 1.97 0.39 95 1010.5
20260502222138 52 117 0.0 0.0 0.00 1.97 0.39 95 1010.4
20260502221125 52 117 0.0 0.0 0.00 1.97 0.39 95 1010.5
20260502220119 52 116 0.0 1.0 0.00 1.97 0.39 95 1010.6
20260502215125 52 117 0.0 0.0 0.00 1.97 0.39 95 1010.7
20260502214119 52 117 0.0 0.0 0.00 1.97 0.39 95 1010.6
20260502213124 52 117 0.0 0.0 0.00 1.97 0.39 95 1010.7
20260502212118 52 117 0.0 0.0 0.00 1.97 0.39 95 1010.7
20260502211131 52 116 0.0 0.0 0.00 1.97 0.39 95 1010.6
20260502210137 52 117 0.0 0.0 0.00 1.97 0.39 95 1010.6
20260502205129 52 117 0.0 0.0 0.00 1.97 0.39 95 1010.6
20260502204142 52 117 0.0 0.0 0.00 1.97 0.39 95 1010.5
20260502203134 52 117 0.0 0.0 0.00 1.97 0.39 95 1010.4
20260502202140 52 117 0.0 0.0 0.00 1.97 0.39 95 1010.3
20260502201112 52 117 0.0 1.0 0.00 1.97 0.39 95 1010.4
20260502200118 52 117 0.0 0.0 0.00 1.97 0.39 95 1010.3
20260502195115 52 117 0.0 0.0 0.00 1.97 0.39 94 1010.4
20260502194129 52 117 0.0 0.0 0.00 1.97 0.39 94 1010.4
20260502193115 52 117 0.0 0.0 0.00 1.97 0.39 94 1010.4